NIMBUS 2 DEB, 40641

Orbit data source: Space-Track

NIMBUS 2 DEB, 40641 is space debris in SSO originally from a launch on Sun, 15 May 1966 UTC launched from the Air Force Western Test Range (AFWTR). Debris objects in space refer to the collection of defunct objects orbiting the Earth. Examples of debris include non-operational satellites, rocket bodies, and fragments generated from explosions, collisions, or faulty payload assembly.

Loading next visibility...
Identifier
40641, 1966-040BE
Orbit
SSO
Country
Flag of USUS
Related business
Manufacturer
Unknown
Mission
Spacecraft
Bus & Motor
Unknown
Mass
Unknown
Launch date (UTC)
1966-05-15 (60 years ago)
Launch vehicle
Unknown
Launch site
Air Force Western Test Range (AFWTR)
Object type
Payload
Rocket body
Debris
Shape & HBR
Unknown shape, 0.1 m
Radar Cross Section
Small (<0.1 m²)

Expand to show TLE details & history
Last TLE update: 2 days ago

TLE from 2 days ago
0 NIMBUS 2 DEB
1 40641U 66040BE  26034.63824722  .00001687  00000-0  29355-2 0  9998
2 40641 100.4051 280.1282 0042237 147.0202 213.3575 13.44951911524954
Epoch: 2026-02-03T15:19Z
TLE epoch observation values (Epoch: 2026-02-03T15:19:04.559Z)
Latitude
0.00004°
Longitude
-83.45711°
Altitude
1,120.038 km
Speed
7.28 km/s
True Right ascension
18h 40m 30s
True Declination
0° 00' 00"
Sunlit
Object was in daylight at epoch
Visualization orbit readout
Latitude
Unknown
Longitude
Unknown
Altitude
Unknown
Speed
Unknown
Apparent Right ascension
Unknown
Apparent Declination
Unknown
Sunlit
N/A
Visualization observer readout
Local Sidereal Time
13:17:18
Azimuth
Unknown
Elevation
Unknown
Doppler factor
Unknown
Orbital elements
Apogee altitude
1,119.771 km
Perigee altitude
1,056.699 km
Semi-major axis
7,466.372 km
Eccentricity
0.00422
Inclination
100.4051°
RAAN
280.1282°
Arg. of periapsis
147.0202°
True anomaly
213.09254°
Mean anomaly
213.3575°
Eccentric anomaly
213.2249°
Mean motion
3.36418 °/min
Orbital period
107.01 mins
BSTAR
0.0029355
Loading maneuver chart data...
Computing Atmospheric mass density...
Loading historical data...
Loading historical data...
Loading historical data...
Loading historical data...
Loading historical data...
Loading historical data...
Loading historical data...

Documentation

Showing up to 5 results
|